Find Yaogan Weixing 11

NORAD ID: 37165 Int'l Des: 2010-047 Owner: ZZB Country: CN Constellation: yaogan operational
LEOCIRCULARRETROGRADE

实时位置

正在加载3D地球...

关于 Yaogan Weixing 11

正在加载描述...

即将过境

Passes for default location (London). Set your location on the main map for personalized predictions.

高度历史

Loading altitude history...

两行轨道根数

1 37165U 10047A 26107.15095116 .00000495 00000-0 69206-4 0 9993
2 37165 98.3941 330.3516 0036024 78.7734 281.7523 14.81987911839052
Epoch: Apr 17, 2026 • Age: 12 hours

当前状态

高度 608.7 km
速度 7.57 km/s
星下点 56.13°N, 115.84°W
发射日期 Sep 22, 2010
运行时间 15.5 years
类型 military

技术详情

分类 Payload
质量 800.00 kg
干质量 800.00 kg
总质量 800.00 kg
长度 2.00 m
直径 1.50 m
跨度 4.00 m
形状 Box + 2 Pan
制造商 DFHZ
平台类型 CAST-2000
阶段状态 In Orbit
所有者/国家 ZZB/CN

Most Searched